RYR99SD EGCC-LEBL

Flight info

Callsign RYR99SD
Flight time N/A
Altitude 39000
Route LISTO2S LISTO P18 TELBA L151 KIDLI UN859 SOPIL DCT BALAN DCT EVPOK DCT NARAK DCT GAI DCT LOMRA DCT ROCAN DCT PUMAL PUMAL1Z
Aircraft B38M/M-SDE1FGHILORVWXY/HB1

Departure

Time 2026-05-05 16:59
Airport Manchester Airport (EGCC)

Arrival

Time N/A
Airport Josep Tarradellas Barcelona-El Prat Airport (LEBL)
Time Latitude Longitude Altitude Speed Heading
2026-05-05 16:18 53.36081 -2.27244 250 ft 0 kts 358°
2026-05-05 16:43 53.36075 -2.27243 250 ft 1 kts 349°
2026-05-05 16:43 53.36059 -2.27238 250 ft 3 kts 349°
2026-05-05 16:43 53.36055 -2.27237 250 ft 0 kts 349°
2026-05-05 16:44 53.36049 -2.27235 250 ft 2 kts 349°
2026-05-05 16:44 53.36047 -2.27234 250 ft 0 kts 349°
2026-05-05 16:44 53.36045 -2.27233 250 ft 2 kts 349°
2026-05-05 16:44 53.36029 -2.27228 250 ft 3 kts 349°
2026-05-05 16:45 53.36025 -2.27227 250 ft 0 kts 349°
2026-05-05 16:45 53.36021 -2.27226 250 ft 0 kts 349°
2026-05-05 16:46 53.36023 -2.27226 250 ft 0 kts 349°
2026-05-05 16:46 53.36027 -2.27227 250 ft 1 kts 349°
2026-05-05 16:46 53.36033 -2.27229 250 ft 0 kts 349°
2026-05-05 16:48 53.36034 -2.27230 250 ft 0 kts 350°
2026-05-05 16:48 53.36023 -2.27230 250 ft 3 kts 30°
2026-05-05 16:48 53.36013 -2.27248 250 ft 1 kts 87°
2026-05-05 16:49 53.36015 -2.27269 250 ft 0 kts 129°
2026-05-05 16:49 53.35995 -2.27246 250 ft 6 kts 159°
2026-05-05 16:49 53.35987 -2.27244 250 ft 0 kts 170°
2026-05-05 16:50 53.35974 -2.27242 250 ft 7 kts 178°
2026-05-05 16:51 53.35873 -2.27220 250 ft 17 kts 172°
2026-05-05 16:51 53.35817 -2.27259 250 ft 3 kts 229°
2026-05-05 16:51 53.35803 -2.27286 250 ft 9 kts 230°
2026-05-05 16:51 53.35740 -2.27419 250 ft 21 kts 232°
2026-05-05 16:52 53.35625 -2.27647 250 ft 27 kts 224°
2026-05-05 16:52 53.35518 -2.27821 250 ft 24 kts 224°
2026-05-05 16:52 53.35397 -2.28021 244 ft 24 kts 224°
2026-05-05 16:52 53.35341 -2.28111 242 ft 11 kts 224°
2026-05-05 16:53 53.35272 -2.28223 237 ft 16 kts 225°
2026-05-05 16:53 53.35230 -2.28305 236 ft 7 kts 231°
2026-05-05 16:53 53.35192 -2.28384 235 ft 11 kts 231°
2026-05-05 16:53 53.35138 -2.28497 233 ft 14 kts 231°
2026-05-05 16:54 53.35079 -2.28618 238 ft 14 kts 231°
2026-05-05 16:54 53.35017 -2.28739 233 ft 14 kts 223°
2026-05-05 16:54 53.34944 -2.28869 231 ft 17 kts 225°
2026-05-05 16:54 53.34848 -2.29033 221 ft 19 kts 228°
2026-05-05 16:55 53.34775 -2.29178 220 ft 12 kts 230°
2026-05-05 16:55 53.34731 -2.29267 213 ft 14 kts 227°
2026-05-05 16:55 53.34684 -2.29324 213 ft 2 kts 200°
2026-05-05 16:55 53.34683 -2.29324 213 ft 0 kts 200°
2026-05-05 16:56 53.34682 -2.29325 213 ft 0 kts 200°
2026-05-05 16:56 53.34666 -2.29334 210 ft 5 kts 197°
2026-05-05 16:56 53.34631 -2.29343 218 ft 5 kts 181°
2026-05-05 16:57 53.34593 -2.29333 214 ft 6 kts 163°
2026-05-05 16:57 53.34555 -2.29298 214 ft 7 kts 135°
2026-05-05 16:57 53.34543 -2.29223 212 ft 7 kts 71°
2026-05-05 16:57 53.34574 -2.29151 212 ft 9 kts 52°
2026-05-05 16:58 53.34599 -2.29097 220 ft 0 kts 52°
2026-05-05 16:58 53.34608 -2.29077 213 ft 8 kts 51°
2026-05-05 16:58 53.34760 -2.28765 230 ft 75 kts 51°
2026-05-05 16:59 53.35262 -2.27729 253 ft 152 kts 51°
2026-05-05 16:59 53.36052 -2.26167 636 ft 187 kts 50°
2026-05-05 16:59 53.36852 -2.24430 1742 ft 187 kts 50°
2026-05-05 16:59 53.37658 -2.22611 2423 ft 214 kts 57°
2026-05-05 17:00 53.38136 -2.20024 2814 ft 250 kts 94°
2026-05-05 17:00 53.37489 -2.17419 4092 ft 250 kts 128°
2026-05-05 17:00 53.36043 -2.15655 4523 ft 266 kts 156°
2026-05-05 17:00 53.34251 -2.15042 4666 ft 269 kts 179°
2026-05-05 17:01 53.32392 -2.15524 4814 ft 272 kts 199°
2026-05-05 17:01 53.30698 -2.16908 4946 ft 275 kts 206°
2026-05-05 17:01 53.28947 -2.17694 4971 ft 270 kts 182°
2026-05-05 17:01 53.27110 -2.17921 5010 ft 273 kts 184°
2026-05-05 17:02 53.25238 -2.18201 5291 ft 271 kts 184°
2026-05-05 17:02 53.23449 -2.18476 5800 ft 273 kts 184°
2026-05-05 17:02 53.21538 -2.18773 6330 ft 277 kts 185°
2026-05-05 17:02 53.19610 -2.19075 6843 ft 280 kts 185°
2026-05-05 17:03 53.17629 -2.19387 7362 ft 284 kts 185°
2026-05-05 17:03 53.15679 -2.19695 7885 ft 286 kts 186°
2026-05-05 17:03 53.13693 -2.20007 8405 ft 288 kts 186°
2026-05-05 17:03 53.11693 -2.20319 8951 ft 289 kts 186°
2026-05-05 17:04 53.09691 -2.20634 9473 ft 291 kts 186°
2026-05-05 17:04 53.07662 -2.20951 10012 ft 294 kts 187°
2026-05-05 17:04 53.05623 -2.21269 10500 ft 296 kts 187°
2026-05-05 17:04 53.03573 -2.21589 11005 ft 297 kts 187°
2026-05-05 17:05 53.01506 -2.21912 11514 ft 299 kts 187°
2026-05-05 17:05 52.99430 -2.22234 12028 ft 301 kts 187°
2026-05-05 17:05 52.97336 -2.22560 12541 ft 302 kts 187°
2026-05-05 17:05 52.95236 -2.22886 13072 ft 304 kts 188°
2026-05-05 17:06 52.93111 -2.23216 13548 ft 315 kts 187°
2026-05-05 17:06 52.90854 -2.23566 13891 ft 335 kts 187°
2026-05-05 17:06 52.88477 -2.23932 14268 ft 351 kts 187°
2026-05-05 17:06 52.86006 -2.24378 14720 ft 361 kts 193°
2026-05-05 17:07 52.83565 -2.25362 15443 ft 362 kts 195°
2026-05-05 17:07 52.81095 -2.26336 16129 ft 366 kts 195°
2026-05-05 17:07 52.78607 -2.27288 16835 ft 369 kts 195°
2026-05-05 17:07 52.76091 -2.28234 17517 ft 372 kts 195°
2026-05-05 17:08 52.73551 -2.29179 18194 ft 375 kts 194°
2026-05-05 17:08 52.70998 -2.30125 18786 ft 378 kts 194°
2026-05-05 17:08 52.68395 -2.30776 19356 ft 383 kts 182°
2026-05-05 17:08 52.65756 -2.30133 19963 ft 389 kts 164°
2026-05-05 17:09 52.63299 -2.28191 20538 ft 395 kts 150°
2026-05-05 17:09 52.60986 -2.25755 21081 ft 399 kts 150°
2026-05-05 17:09 52.58648 -2.23261 21634 ft 402 kts 149°
2026-05-05 17:09 52.56308 -2.20737 22182 ft 405 kts 149°
2026-05-05 17:10 52.53951 -2.18177 22701 ft 407 kts 149°
2026-05-05 17:10 52.51576 -2.15593 23240 ft 410 kts 149°
2026-05-05 17:10 52.49192 -2.12998 23716 ft 413 kts 149°
2026-05-05 17:10 52.46788 -2.10384 24137 ft 416 kts 149°
2026-05-05 17:11 52.44368 -2.07757 24584 ft 418 kts 149°
2026-05-05 17:11 52.41933 -2.05117 25006 ft 420 kts 149°
2026-05-05 17:11 52.39498 -2.02478 25417 ft 423 kts 149°
2026-05-05 17:11 52.37036 -1.99815 25830 ft 425 kts 149°
2026-05-05 17:12 52.34559 -1.97141 26229 ft 427 kts 149°
2026-05-05 17:12 52.32081 -1.94469 26650 ft 429 kts 149°
2026-05-05 17:12 52.29582 -1.91777 27052 ft 431 kts 149°
2026-05-05 17:12 52.27075 -1.89081 27441 ft 433 kts 149°
2026-05-05 17:13 52.24556 -1.86376 27813 ft 435 kts 149°
2026-05-05 17:13 52.22016 -1.83653 28190 ft 437 kts 149°
2026-05-05 17:13 52.19503 -1.80961 28559 ft 439 kts 149°
2026-05-05 17:13 52.16944 -1.78224 28928 ft 441 kts 149°
2026-05-05 17:14 52.14379 -1.75484 29288 ft 443 kts 149°
2026-05-05 17:14 52.11794 -1.72727 29641 ft 445 kts 149°
2026-05-05 17:14 52.09205 -1.69968 29970 ft 447 kts 150°
2026-05-05 17:14 52.06593 -1.67185 30278 ft 449 kts 149°
2026-05-05 17:15 52.03974 -1.64394 30549 ft 451 kts 149°
2026-05-05 17:15 52.01338 -1.61600 30804 ft 453 kts 149°
2026-05-05 17:15 51.98711 -1.58821 31078 ft 455 kts 149°
2026-05-05 17:15 51.96062 -1.56022 31444 ft 454 kts 149°
2026-05-05 17:16 51.93425 -1.53239 31864 ft 452 kts 149°
2026-05-05 17:16 51.90788 -1.50462 32256 ft 451 kts 149°
2026-05-05 17:16 51.88159 -1.47694 32653 ft 450 kts 149°
2026-05-05 17:16 51.85537 -1.44939 33046 ft 449 kts 149°
2026-05-05 17:17 51.82925 -1.42196 33534 ft 445 kts 149°
2026-05-05 17:17 51.80342 -1.39488 33967 ft 443 kts 149°
2026-05-05 17:17 51.77750 -1.36844 34282 ft 440 kts 154°
2026-05-05 17:17 51.74917 -1.35078 34546 ft 437 kts 165°
2026-05-05 17:18 51.72013 -1.33594 34733 ft 439 kts 163°
2026-05-05 17:18 51.69099 -1.32070 34958 ft 440 kts 163°
2026-05-05 17:18 51.66180 -1.30572 35203 ft 440 kts 164°
2026-05-05 17:18 51.63258 -1.29087 35429 ft 441 kts 164°
2026-05-05 17:19 51.60316 -1.27597 35664 ft 442 kts 164°
2026-05-05 17:19 51.57386 -1.26116 35894 ft 443 kts 164°
2026-05-05 17:19 51.54445 -1.24631 36093 ft 444 kts 163°
2026-05-05 17:19 51.51509 -1.23152 36300 ft 445 kts 163°
2026-05-05 17:20 51.48584 -1.21518 36510 ft 446 kts 157°
2026-05-05 17:20 51.45767 -1.19444 36729 ft 446 kts 157°
2026-05-05 17:20 51.42936 -1.17374 36911 ft 447 kts 156°
2026-05-05 17:20 51.40098 -1.15290 36970 ft 448 kts 156°
2026-05-05 17:21 51.34443 -1.11138 36945 ft 446 kts 156°
2026-05-05 17:22 51.26005 -1.04961 36938 ft 446 kts 156°
2026-05-05 17:22 51.20364 -1.00846 36940 ft 446 kts 156°
2026-05-05 17:23 51.14715 -0.96737 36939 ft 446 kts 156°
2026-05-05 17:23 51.09070 -0.92640 36932 ft 445 kts 156°
2026-05-05 17:24 51.03483 -0.88598 36928 ft 445 kts 156°
2026-05-05 17:24 50.97839 -0.84525 36922 ft 445 kts 156°
2026-05-05 17:25 50.92168 -0.80443 36923 ft 445 kts 156°
2026-05-05 17:25 50.86552 -0.76407 36919 ft 445 kts 155°
2026-05-05 17:26 50.81243 -0.71291 36935 ft 447 kts 148°
2026-05-05 17:26 50.76047 -0.66017 36927 ft 447 kts 148°
2026-05-05 17:27 50.71084 -0.60980 36924 ft 447 kts 148°
2026-05-05 17:27 50.67451 -0.57300 36930 ft 447 kts 148°
2026-05-05 17:28 50.63431 -0.53235 36926 ft 447 kts 148°
2026-05-05 17:28 50.59325 -0.49092 36922 ft 447 kts 148°
2026-05-05 17:29 50.55171 -0.44911 36919 ft 447 kts 148°
2026-05-05 17:29 50.50760 -0.40480 36919 ft 447 kts 148°
2026-05-05 17:30 50.45947 -0.35657 36919 ft 447 kts 148°
2026-05-05 17:30 50.42555 -0.32264 36913 ft 447 kts 148°
2026-05-05 17:31 50.39618 -0.29330 36919 ft 447 kts 148°
2026-05-05 17:31 50.36676 -0.26398 36915 ft 447 kts 148°
2026-05-05 17:32 50.33714 -0.23450 36918 ft 447 kts 148°
2026-05-05 17:32 50.30614 -0.20368 36919 ft 447 kts 148°
2026-05-05 17:33 50.26722 -0.16507 36920 ft 447 kts 148°
2026-05-05 17:33 50.21542 -0.11379 36923 ft 447 kts 148°
2026-05-05 17:34 50.16378 -0.06278 36913 ft 446 kts 148°
2026-05-05 17:34 50.11074 -0.01109 36914 ft 445 kts 153°
2026-05-05 17:34 50.08296 0.00525 36915 ft 439 kts 166°
2026-05-05 17:35 50.05360 0.01721 36902 ft 439 kts 165°
2026-05-05 17:35 49.99463 0.04141 36920 ft 440 kts 166°
2026-05-05 17:36 49.93512 0.06497 36921 ft 441 kts 166°
2026-05-05 17:36 49.87543 0.08839 36916 ft 438 kts 166°
2026-05-05 17:37 49.81643 0.11147 36891 ft 439 kts 166°
2026-05-05 17:37 49.75699 0.13467 36889 ft 442 kts 166°
2026-05-05 17:38 49.69745 0.15785 36882 ft 439 kts 165°
2026-05-05 17:38 49.63883 0.18150 36897 ft 438 kts 165°
2026-05-05 17:39 49.57985 0.20522 36892 ft 439 kts 165°
2026-05-05 17:39 49.53014 0.22518 36886 ft 443 kts 165°
2026-05-05 17:40 49.46116 0.25279 36883 ft 441 kts 165°
2026-05-05 17:40 49.41140 0.27265 36874 ft 441 kts 165°
2026-05-05 17:41 49.35193 0.29634 36884 ft 442 kts 165°
2026-05-05 17:41 49.29246 0.32072 36889 ft 443 kts 164°
2026-05-05 17:42 49.23330 0.34574 36885 ft 443 kts 164°
2026-05-05 17:42 49.17440 0.37049 36864 ft 442 kts 164°
2026-05-05 17:43 49.11495 0.39541 36859 ft 443 kts 164°
2026-05-05 17:43 49.05544 0.42029 36872 ft 443 kts 164°
2026-05-05 17:44 48.99617 0.44501 36876 ft 442 kts 164°
2026-05-05 17:44 48.93677 0.46972 36881 ft 443 kts 164°
2026-05-05 17:45 48.87727 0.49441 36865 ft 443 kts 164°
2026-05-05 17:45 48.81775 0.51906 36875 ft 443 kts 164°
2026-05-05 17:46 48.75832 0.54274 36873 ft 443 kts 165°
2026-05-05 17:46 48.69864 0.56620 36868 ft 443 kts 165°
2026-05-05 17:47 48.66268 0.58032 36878 ft 443 kts 165°
2026-05-05 17:47 48.62735 0.59418 36874 ft 443 kts 165°
2026-05-05 17:48 48.56765 0.61755 36873 ft 443 kts 165°
2026-05-05 17:48 48.50840 0.64110 36873 ft 443 kts 164°
2026-05-05 17:49 48.44883 0.66535 36870 ft 443 kts 164°
2026-05-05 17:49 48.38918 0.68952 36874 ft 444 kts 165°
2026-05-05 17:50 48.32953 0.71362 36857 ft 443 kts 164°
2026-05-05 17:50 48.26999 0.73761 36887 ft 444 kts 165°
2026-05-05 17:51 48.21021 0.76122 36873 ft 445 kts 165°
2026-05-05 17:51 48.15025 0.78485 36864 ft 445 kts 165°
2026-05-05 17:52 48.09033 0.80839 36848 ft 444 kts 165°
2026-05-05 17:52 48.03101 0.83164 36845 ft 445 kts 165°
2026-05-05 17:53 47.97094 0.85513 36858 ft 447 kts 165°
2026-05-05 17:53 47.91073 0.87863 36858 ft 447 kts 165°
2026-05-05 17:54 47.85047 0.90208 36851 ft 447 kts 165°
2026-05-05 17:54 47.79074 0.92525 36840 ft 448 kts 166°
2026-05-05 17:55 47.73022 0.94867 36866 ft 449 kts 166°
2026-05-05 17:55 47.66978 0.97200 36859 ft 448 kts 166°
2026-05-05 17:56 47.60899 0.99542 36846 ft 449 kts 166°
2026-05-05 17:56 47.54898 1.01847 36850 ft 449 kts 166°
2026-05-05 17:57 47.48865 1.04160 36846 ft 448 kts 166°
2026-05-05 17:57 47.42809 1.06254 36824 ft 446 kts 176°
2026-05-05 17:58 47.36606 1.06242 36799 ft 448 kts 180°
2026-05-05 17:58 47.30404 1.06144 36859 ft 446 kts 181°
2026-05-05 17:59 47.24200 1.06004 36856 ft 446 kts 181°
2026-05-05 17:59 47.17989 1.05859 36841 ft 446 kts 181°
2026-05-05 18:00 47.11788 1.05714 36852 ft 446 kts 181°
2026-05-05 18:00 47.05589 1.05569 36854 ft 446 kts 181°
2026-05-05 18:01 46.99387 1.05338 36861 ft 446 kts 182°
2026-05-05 18:01 46.93186 1.05072 36852 ft 446 kts 182°
2026-05-05 18:02 46.86969 1.04811 36852 ft 446 kts 182°
2026-05-05 18:02 46.80827 1.04553 36853 ft 446 kts 182°
2026-05-05 18:03 46.74621 1.04293 36854 ft 446 kts 182°
2026-05-05 18:03 46.68402 1.04033 36865 ft 446 kts 182°
2026-05-05 18:04 46.62196 1.03775 36859 ft 446 kts 182°
2026-05-05 18:04 46.56000 1.03517 36855 ft 446 kts 182°
2026-05-05 18:05 46.49837 1.03989 36862 ft 445 kts 167°
2026-05-05 18:05 46.43813 1.05972 36847 ft 447 kts 168°
2026-05-05 18:06 46.37739 1.07978 36887 ft 448 kts 168°
2026-05-05 18:06 46.31684 1.09994 36891 ft 447 kts 168°
2026-05-05 18:07 46.25611 1.12015 36888 ft 448 kts 168°
2026-05-05 18:07 46.19541 1.14030 36900 ft 448 kts 168°
2026-05-05 18:08 46.13464 1.16042 36900 ft 448 kts 168°
2026-05-05 18:08 46.07409 1.18043 36902 ft 447 kts 168°
2026-05-05 18:09 46.01339 1.20044 36906 ft 447 kts 168°
2026-05-05 18:09 45.95279 1.22037 36905 ft 447 kts 169°
2026-05-05 18:10 45.89213 1.24028 36909 ft 448 kts 169°
2026-05-05 18:10 45.83158 1.26011 36917 ft 448 kts 169°
2026-05-05 18:11 45.77106 1.27988 36909 ft 448 kts 169°
2026-05-05 18:11 45.71127 1.29937 36911 ft 448 kts 169°
2026-05-05 18:12 45.65042 1.31917 36915 ft 448 kts 169°
2026-05-05 18:12 45.59271 1.33790 36921 ft 448 kts 169°
2026-05-05 18:13 45.53169 1.35766 36917 ft 448 kts 169°
2026-05-05 18:13 45.47102 1.37727 36915 ft 448 kts 169°
2026-05-05 18:14 45.41009 1.39692 36917 ft 448 kts 169°
2026-05-05 18:14 45.34958 1.41637 36910 ft 448 kts 169°
2026-05-05 18:15 45.28944 1.43569 36912 ft 448 kts 169°
2026-05-05 18:15 45.23127 1.45432 36908 ft 447 kts 169°
2026-05-05 18:16 45.18073 1.47048 36909 ft 447 kts 169°
2026-05-05 18:16 45.11062 1.49284 36909 ft 447 kts 169°
2026-05-05 18:17 45.05998 1.50897 36911 ft 447 kts 169°
2026-05-05 18:17 45.00152 1.52754 36912 ft 447 kts 169°
2026-05-05 18:18 44.94066 1.54682 36913 ft 448 kts 170°
2026-05-05 18:18 44.88281 1.56513 36913 ft 448 kts 170°
2026-05-05 18:19 44.82241 1.58420 36916 ft 448 kts 170°
2026-05-05 18:19 44.76695 1.60167 36912 ft 448 kts 170°
2026-05-05 18:20 44.70609 1.62080 36912 ft 448 kts 170°
2026-05-05 18:20 44.64870 1.63881 36926 ft 448 kts 170°
2026-05-05 18:21 44.58792 1.65783 36921 ft 448 kts 171°
2026-05-05 18:21 44.52899 1.67625 36925 ft 447 kts 171°
2026-05-05 18:22 44.46859 1.69508 36933 ft 447 kts 171°
2026-05-05 18:22 44.40770 1.71402 36925 ft 447 kts 171°
2026-05-05 18:23 44.34714 1.73283 36932 ft 446 kts 171°
2026-05-05 18:23 44.28706 1.75010 36939 ft 444 kts 175°
2026-05-05 18:24 44.22624 1.76321 36937 ft 445 kts 174°
2026-05-05 18:24 44.16536 1.77685 36947 ft 445 kts 174°
2026-05-05 18:25 44.10455 1.79052 36949 ft 444 kts 174°
2026-05-05 18:25 44.04714 1.80340 36947 ft 445 kts 174°
2026-05-05 18:26 43.98610 1.81706 36941 ft 444 kts 175°
2026-05-05 18:26 43.92705 1.82567 36971 ft 440 kts 180°
2026-05-05 18:27 43.86590 1.83121 36951 ft 441 kts 180°
2026-05-05 18:27 43.80489 1.83726 36958 ft 441 kts 180°
2026-05-05 18:28 43.71468 1.84629 36965 ft 440 kts 180°
2026-05-05 18:28 43.65378 1.85237 36977 ft 440 kts 180°
2026-05-05 18:29 43.60057 1.85767 36963 ft 440 kts 180°
2026-05-05 18:29 43.54292 1.86341 36973 ft 440 kts 180°
2026-05-05 18:30 43.48197 1.86947 36972 ft 439 kts 180°
2026-05-05 18:30 43.42181 1.87543 36975 ft 439 kts 180°
2026-05-05 18:31 43.36968 1.88059 36967 ft 439 kts 180°
2026-05-05 18:31 43.30927 1.88641 36971 ft 439 kts 180°
2026-05-05 18:32 43.24838 1.89223 36978 ft 439 kts 180°
2026-05-05 18:32 43.18742 1.89804 36966 ft 440 kts 180°
2026-05-05 18:33 43.13433 1.90311 36974 ft 440 kts 180°
2026-05-05 18:33 43.07431 1.90881 36976 ft 440 kts 180°
2026-05-05 18:34 43.02089 1.91388 36974 ft 436 kts 181°
2026-05-05 18:34 42.96139 1.91952 36873 ft 434 kts 181°
2026-05-05 18:35 42.95483 1.92014 36748 ft 433 kts 181°
2026-05-05 18:35 42.93517 1.92201 36308 ft 432 kts 181°
2026-05-05 18:36 42.90558 1.92481 35717 ft 430 kts 181°
2026-05-05 18:36 42.87903 1.92731 35145 ft 430 kts 181°
2026-05-05 18:36 42.85264 1.92980 34514 ft 431 kts 181°
2026-05-05 18:36 42.82704 1.93222 33831 ft 433 kts 181°
2026-05-05 18:37 42.80150 1.93462 33058 ft 434 kts 181°
2026-05-05 18:37 42.78017 1.93663 32498 ft 434 kts 181°
2026-05-05 18:37 42.75500 1.93900 31979 ft 431 kts 181°
2026-05-05 18:37 42.73064 1.94129 31569 ft 425 kts 181°
2026-05-05 18:38 42.70353 1.94384 31114 ft 420 kts 181°
2026-05-05 18:38 42.67431 1.94689 30529 ft 432 kts 178°
2026-05-05 18:38 42.64442 1.95317 29961 ft 453 kts 176°
2026-05-05 18:38 42.61401 1.95962 30091 ft 442 kts 176°
2026-05-05 18:39 42.58980 1.96458 29573 ft 435 kts 177°
2026-05-05 18:39 42.56102 1.97029 28449 ft 440 kts 177°
2026-05-05 18:39 42.53120 1.97619 27555 ft 435 kts 176°
2026-05-05 18:39 42.50233 1.98187 27096 ft 415 kts 176°
2026-05-05 18:40 42.47695 1.98685 26647 ft 400 kts 176°
2026-05-05 18:40 42.45106 1.99193 26149 ft 386 kts 176°
2026-05-05 18:40 42.42700 1.99664 25708 ft 373 kts 176°
2026-05-05 18:40 42.40215 2.00151 25267 ft 361 kts 176°
2026-05-05 18:41 42.37914 2.00602 25028 ft 345 kts 177°
2026-05-05 18:41 42.35604 2.00931 24438 ft 345 kts 180°
2026-05-05 18:41 42.33208 2.01204 23799 ft 351 kts 180°
2026-05-05 18:41 42.30830 2.01456 23800 ft 336 kts 180°
2026-05-05 18:42 42.28530 2.01921 23460 ft 339 kts 167°
2026-05-05 18:42 42.26663 2.03206 22730 ft 358 kts 149°
2026-05-05 18:42 42.24784 2.05356 21910 ft 371 kts 147°
2026-05-05 18:42 42.22860 2.07268 21118 ft 376 kts 149°
2026-05-05 18:43 42.20833 2.09269 20324 ft 383 kts 148°
2026-05-05 18:43 42.18728 2.11353 19528 ft 389 kts 148°
2026-05-05 18:43 42.16626 2.13435 18737 ft 396 kts 148°
2026-05-05 18:43 42.14695 2.15348 18007 ft 401 kts 148°
2026-05-05 18:44 42.12651 2.17373 17167 ft 406 kts 147°
2026-05-05 18:44 42.10487 2.19515 16309 ft 407 kts 147°
2026-05-05 18:44 42.08338 2.21647 15500 ft 397 kts 147°
2026-05-05 18:44 42.06178 2.23791 14722 ft 388 kts 147°
2026-05-05 18:45 42.04160 2.25791 14049 ft 380 kts 147°
2026-05-05 18:45 42.02464 2.27472 13635 ft 369 kts 147°
2026-05-05 18:45 42.00477 2.29440 13170 ft 354 kts 147°
2026-05-05 18:45 41.98523 2.31373 12891 ft 344 kts 147°
2026-05-05 18:46 41.96587 2.33282 12891 ft 346 kts 147°
2026-05-05 18:46 41.96032 2.33829 12884 ft 347 kts 147°